www.pogodaiklimat.ru

Погода и климат >> Архив погоды >> Аргентина >> San Juan


ПОГОДА в San Juan

  • Прогноз погоды в San Juan
  • Монитор погоды в San Juan
  • Климат города

АРХИВ ПОГОДЫ в San Juan

Время (UTC), дата Ветер
(напр.,м/с)
 
Видим.   Явления Облачность Т
(С)
Тd
(С)
f
(%)
Тe
(С)
Тes
(С)
Комфортность P
(гПа)
Po
(гПа)
Тmin
(С)
Tmax
(С)
R
(мм)
R24
(мм)
S
(см)
03 8.12 СЗ 4 15 км ясно +24.0 +11.2 45 +25 +25 комфорт 1013.1 946.5
06 8.12 С 4 15 км ясно +21.0 +11.6 55 +23 +23 комфорт 1010.7 943.5
09 8.12 С 4 15 км ясно +20.2 +11.4 57 +22 +22 комфорт 1008.7 942.6
12 8.12 С 5 15 км ясно +25.7 +12.9 45 +28 +30 жарко 1008.3 942.2 +19.3 +26.7
15 8.12 С 6 15 км 1/1 1200 м
[Cu hum]
+30.8 +11.5 31 +31 +38 жарко 1005.3 939.8
18 8.12 В 5 15 км 1/1 1200 м
[Cu hum]
+33.8 +10.4 24 +33 +43 жарко 1001.4 936.1
21 8.12 Ю 5 15 км 1/1 1200 м
[Cu med, cong]
+35.2 +7.3 18 +33 +36 жарко 999.0 933.8
00 9.12 Ю 3 15 км 3/3 1200 м
[Cu med, cong]
+28.8 +12.2 36 +30 +30 жарко 1000.6 935.3 +25.7 +36.0
03 9.12 Ю 4 15 км ясно +25.0 +12.2 45 +27 +27 жарко 1003.0 937.7
06 9.12 С 1 15 км ясно +19.2 +12.3 64 +21 +21 комфорт 1003.5 937.8
09 9.12 Ю 6 15 км ясно +17.6 +12.0 70 +17 +17 1007.8 941.8
12 9.12 Ю 9 15 км 1/1 1200 м
[Cu hum]
+23.7 +6.9 34 +24 +24 комфорт 1011.2 945.2 +16.1 +28.8
15 9.12 ЮВ 7 15 км ясно +26.6 +8.6 32 +27 +33 жарко 1010.5 944.2
18 9.12 Ю 5 15 км ясно +30.1 +7.7 25 +29 +39 жарко 1008.4 942.1
21 9.12 Ю 6 15 км ясно +32.4 +5.5 19 +30 +33 жарко 1006.1 940.0
00 10.12 ЮЗ 3 15 км ясно +26.2 +8.8 33 +26 +26 жарко 1008.0 941.8 +23.7 +32.5
03 10.12 штиль 0 15 км ясно +22.0 +10.8 49 +24 +24 комфорт 1010.5 944.0
06 10.12 штиль 0 15 км ясно +17.9 +10.3 61 +18 +18 1008.8 942.2
09 10.12 З 2 15 км ясно +17.1 +9.7 62 +18 +18 1008.1 941.8
12 10.12 штиль 0 15 км ясно +26.0 +10.9 39 +27 +34 жарко 1007.8 941.8 +15.7 +26.2
15 10.12 С 6 15 км ясно +33.0 +12.0 28 +33 +42 жарко 1004.8 939.3
18 10.12 С 5 15 км ясно +37.8 +12.1 21 +37 +47 очень
жарко
1000.5 935.4
21 10.12 С 5 15 км ясно +40.2 +8.9 15 +38 +42 очень
жарко
996.7 932.0
00 11.12 С 5 15 км ясно +34.3 +10.4 23 +33 +33 жарко 997.9 933.4 +26.0 +40.5
03 11.12 С 6 15 км ясно +31.4 +15.4 38 +34 +34 душно 999.7 935.4
06 11.12 Ю 5 15 км ясно +29.4 +16.4 45 +33 +33 душно 1001.5 937.4
09 11.12 Ю 9 15 км 1/0
[Ac As]
+21.2 +12.9 59 +23 +23 комфорт 1006.6 941.7
12 11.12 Ю 11 15 км 1/0
[Ac As]
+25.8 +7.6 31 +26 +26 жарко 1009.0 943.5 +21.2 +34.3
15 11.12 Ю 8 15 км ясно +29.4 +8.2 27 +29 +33 жарко 1008.1 943.0
18 11.12 Ю 7 15 км ясно +32.0 +7.2 21 +30 +36 жарко 1005.3 940.4
21 11.12 Ю 8 15 км ясно +33.6 +7.8 20 +32 +33 жарко 1003.2 938.6
00 12.12 Ю 4 15 км ясно +28.6 +11.0 34 +29 +29 жарко 1006.5 940.8 +25.8 +34.5
03 12.12 ЮЗ 4 15 км ясно +22.8 +10.5 46 +25 +25 комфорт 1009.3 943.2
06 12.12 Ю 5 15 км 3/0
[Ci]
+22.6 +10.2 45 +24 +24 комфорт 1009.3 943.4
09 12.12 Ю 7 15 км 4/0
[Ac As Ci]
+22.4 +12.1 52 +25 +25 комфорт 1010.2 944.5
12 12.12 Ю 9 15 км 9/3 1200 м
[Sc Ac und]
+21.8 +8.6 43 +23 +23 комфорт 1015.5 948.8 +20.7 +28.6
15 12.12 Ю 8 15 км ясно +25.7 +7.4 31 +26 +30 жарко 1013.2 946.5
18 12.12 Ю 6 15 км ясно +27.9 +8.4 29 +28 +35 жарко 1009.3 943.0
21 12.12 Ю 4 15 км ясно +30.0 +8.7 26 +29 +34 жарко 1005.9 940.0
00 13.12 Ю 4 15 км 3/0
[Ci]
+25.2 +6.1 29 +25 +25 комфорт 1006.4 940.0 +21.8 +30.1
03 13.12 Ю 3 15 км 5/0
[Cc]
+23.0 +8.7 40 +24 +24 комфорт 1006.6 940.0
06 13.12 З 2 15 км 4/0
[Cc]
+20.0 +9.0 49 +22 +22 комфорт 1004.2 938.0
09 13.12 СВ 2 15 км ясно +17.0 +8.3 57 +18 +18 1003.1 936.9
12 13.12 СВ 2 15 км ясно +24.7 +9.2 37 +25 +31 комфорт 1002.6 936.6 +15.5 +25.2
15 13.12 ЮВ 2 15 км ясно +30.3 +12.3 33 +31 +50 жарко 998.9 933.6
18 13.12 Ю 5 15 км ясно +35.0 +8.7 20 +33 +45 жарко 995.5 930.6
21 13.12 Ю 6 15 км 4/1 1350 м
[Cu hum Cc]
+37.8 +3.5 12 +35 +37 очень
жарко
993.8 929.0
00 14.12 З 4 15 км зарница 8/1 1200 м
[Cb calv Cc]
+33.5 +1.9 14 +30 +30 жарко 997.2 932.5 +24.7 +38.5
03 14.12 СЗ 6 15 км зарница 1/1 1200 м
[Cb calv]
+28.4 +4.5 22 +25 +25 комфорт 999.7 934.9
06 14.12 Ю 6 15 км ясно +28.0 +8.5 29 +28 +28 жарко 1000.8 936.4
09 14.12 Ю 10 15 км ясно +24.4 +10.9 43 +26 +26 жарко 1005.7 940.9
12 14.12 Ю 11 15 км 1/0
[Ac cuf]
+21.7 +7.3 39 +23 +23 комфорт 1010.3 944.5 +19.2 +33.7
15 14.12 Ю 8 15 км ясно +24.7 +8.2 35 +25 +29 комфорт 1009.9 943.8
18 14.12 Ю 7 15 км ясно +27.0 +6.9 28 +27 +32 жарко 1008.7 943.0
21 14.12 Ю 11 15 км ясно +28.2 +4.2 22 +27 +27 жарко 1008.7 942.6

 

Местоположение метеостанции San Juan (Аргентина): широта -31.40 долгота -68.41 высота над уровнем моря 598 м.

В архиве по умолчанию представлена погода в San Juan за последнюю неделю. Архивные данные за месяц целиком и за предыдущие месяцы, начиная с января 2011 года, Вы можете получить, выбрав интересующий диапазон дат из раскрывающегося списка и нажав кнопку "Ввод!".


*Определитесь, кто Вы:
робот инопланетянин человек

Внимание! Время в таблицах - всемирное. Для получения местного времени необходимо прибавить поправку, которая в San Juan равна -3 ч.

Смотрите также архив погоды в соседних городах и на ближайших метеорологических станциях:

Погода в Mendoza (Аргентина) (163 км)
Погода в San Martin (Аргентина) (187 км)
Погода в Chamical (Аргентина) (234 км)
Погода в La Rioja (Аргентина) (272 км)
Погода в San Luis (Аргентина) (283 км)
Погода в Santiago (Чили) (310 км)
Погода в Pudahuel (Чили) (313 км)
Погода в La Serena (Чили) (314 км)
Погода в Villa Dolores (Аргентина) (316 км)
Погода в Coquimbo (Чили) (326 км)

Пояснения к столбцам:

Ветер - указаны скорость ветра в м/с - средняя за 10 мин, порывы в срок и между сроками (в фигурных скобках) и направление, откуда дует ветер: С - северный, СВ - северо-восточный, В - восточный, ЮВ - юго-восточный, Ю - южный, ЮЗ - юго-западный, З - западный, СЗ - северо-западный.
Видимость - горизонтальная дальность видимости в метрах или километрах. При видимости от 1 до 10 км при отсутствии осадков обычно наблюдается дымка, при ухудшении видимости до 1 км и менее - туман. В сухую погоду видимость может ухудшаться дымом, пылью или мглою.
Явления - указаны атмосферные явления, наблюдавшиеся в срок или в последний час перед сроком; фигурными скобками обозначены явления, наблюдавшиеся между сроками (за 1-3 часа до срока); квадратными скобками обозначены град или гололедные отложения с указанием их диаметра в мм.
Облачность - указаны через наклонную черту общая и нижняя облачность в баллах и высота нижней границы облаков в метрах; квадратными скобками обозначены формы облаков: Ci - перистые, Cs - перисто-слоистые, Cc - перисто-кучевые, Ac - высококучевые, As - высокослоистые, Sc - слоисто-кучевые, Ns - слоисто-дождевые, Cu - кучевые, Cb - кучево-дождевые. Подробнее классификацию облаков см. в Атласе облаков (PDF).
T - Температура воздуха - температура, измеренная на высоте 2 м над землей.
Td - Температура точки росы - температура, при понижении до которой содержащийся в воздухе водяной пар достигнет насыщения.
f - Относительная влажность воздуха - влажноcть воздуха, измеренная на высоте 2 м над землей.
Te - Эффективная температура - температура, которую ощущает одетый по сезону человек в тени. Характеристика душности погоды. При расчете учитывается влияние влажности воздуха и скорости ветра на теплоощущения человека.
Tes - Эффективная температура на солнце - температура, которую ощущает человек, с поправкой на солнечный нагрев. Характеристика знойности погоды. Зависит от высоты солнца над горизонтом, облачности и скорости ветра. Ночью, в пасмурную погоду, а также при ветре 12 м/с и более поправка равна нулю.
P - Атмосферное давление - приведенное к уровню моря атмосферное давление.
Po - Атмосферное давление - измеренное на уровне метеостанции атмосферное давление.
Tmin - Минимальная температура - минимум температуры воздуха на высоте 2 м над землей.
Tmax - Максимальная температура - максимум температуры воздуха на высоте 2 м над землей.
R - Количество осадков - Количество выпавших осадков за период времени, мм. При наведении курсора мыши на число - период времени, за который выпало указанное количество осадков.
R24 - Количество осадков - Количество выпавших осадков за 24 часа, мм.
S - Снежный покров - Высота снежного покрова, см. При наведении курсора мыши на число - состояние снежного покрова и степень покрытия местности в баллах.